User: anonymous   Login
Location: Montr�al
(45.5000°N, 73.5830°W)
Time: 13:59:32
(UTC-04:00)
Language:

Cosmos 2369 - Orbit

View from above orbital plane
View from above orbital plane
View from above satellite
View from above satellite

Ground track
Ground track

The orbit data is extracted from the following two-line orbital elements,

1 26069U 00006A   16152.17705193  .00000093  00000-0  74815-4 0  9998
2 26069  70.9978  79.3157 0009073  86.6615 273.5544 14.13343379842145
Epoch (UTC): 31 May 2016 04:14:57
Eccentricity: 0.0009073
inclination: 70.9978°
perigee height: 841 km
apogee height: 854 km
right ascension of ascending node: 79.3157°
argument of perigee: 86.6615°
revolutions per day: 14.13343379
mean anomaly at epoch: 273.5544°
orbit number at epoch: 84214

The dashed part of the orbit path shows where the satellite is in the earth's shadow,  

DLR